Powrót do katalogu

PAYLOAD B

AktywnyMilitariaSSO
NORAD 39209·PAYLOAD·🇨🇳 China

Wystrzelony Jul 19, 2013 z Taiyuan Satellite Launch Center

Loading…

Następne Przeloty (najbliższe 24 godziny)

TLE

ŚwieżeSource: Space-Track

Epoka: Sep 13, 2026, 22:47 UTC

1 39209U 13037B   26256.94937150  .00000640  00000-0  10334-3 0  9990
2 39209  98.0851 263.0252 0003566 190.0367 170.0771 14.74745567705434

Śledź PAYLOAD B w czasie rzeczywistym z AllMySat

Download on the App Store